"Pseudo-MPEC" for A116XpY = A117bbC
Created 2024 Jul 28 19:49:13 UT using Find_Orb
Click here for an explanation of pseudo-MPECs
TLEs are available for this object, and for most of the other objects listed on these pages.
Astrometry:
A116XpY C2024 05 28.24479217 11 03.005-05 40 23.92 16.41oV W68
A116XpY C2024 05 28.25610917 12 51.823-06 05 09.82 16.47oV W68
A116XpY C2024 05 28.25928017 13 22.519-06 12 04.10 16.49oV W68
A116XpY C2024 05 28.26472217 14 15.278-06 23 51.43 16.37oV W68
A117bbC* C2024 06 02.18429817 18 01.819-06 08 19.32 ~63GL 16.55cVNEOCPW68
A117bbC C2024 06 02.18658017 18 23.064-06 13 42.31 ~63GL 16.53cVNEOCPW68
A117bbC C2024 06 02.18935017 18 49.140-06 20 18.06 ~63GL 16.54cVNEOCPW68
A118s6l* C2024 07 14.15926419 35 13.946-27 35 50.57 ~7EG6 16.67oVNEOCPW68
A118s6l C2024 07 14.16249519 35 55.596-27 42 34.96 ~7EG6 16.08oVNEOCPW68
A118s6l C2024 07 14.16566619 36 37.565-27 49 18.77 ~7EG6 15.85oVNEOCPW68
A118s6l C2024 07 14.17178819 37 56.921-28 01 51.53 ~7EG6 15.98oVNEOCPW68
A118NyU* C2024 07 26.20462620 28 45.763-32 19 59.70 ~7QKU 16.22oVNEOCPW68
A118NyU C2024 07 26.20739520 29 29.386-32 23 24.04 ~7QKU 16.22oVNEOCPW68
A118NyU C2024 07 26.24011420 38 26.275-33 00 01.12 ~7QKU 16.22oVNEOCPW68
A118NyU C2024 07 26.24325020 39 19.939-33 03 09.14 ~7QKU 16.13oVNEOCPW68
A118NyU C2024 07 26.24417620 39 35.669-33 04 03.32 ~7QKU 16.31oVNEOCPW68
A118NyU C2024 07 26.24875020 40 55.142-33 08 28.36 ~7QKU 16.25oVNEOCPW68
A118NyU C2024 07 26.28686020 52 40.042-33 39 23.40 ~7QKU 16.06oVNEOCPW68
A118T0G* C2024 07 27.25317820 46 09.828-33 20 25.76 ~7SEa 15.79oVNEOCPW68
A118T0G C2024 07 27.25845520 47 44.578-33 24 46.55 ~7SEa 15.77oVNEOCPW68
A118T0G C2024 07 27.26163920 48 42.622-33 27 18.07 ~7SEa 15.86oVNEOCPW68
Station data:
(W68) ATLAS Chile, Rio Hurtado (S30.471010 W70.764980) Chile. Observers L.
Denneau, R. Siverd, J. Tonry, H. Weiland. Measurers L. Denneau, N.
Erasmus, A. Fitzsimmons, A. Lawrence, J. Robinson, R. Siverd, J. Tonry, H.
Weiland. 0.5-m reflector + CCD.
Orbital elements: A116XpY = A117bbC
Perigee 2024 Jun 26.631555 +/- 6.64e-5 TT = 15:09:26.3 (JD 2460488.131555)
A1: (19366.12 +/- 5.95)e-9 A2: (-41.11 +/- 2.03)e-9
A3: (-131.41 +/- 2.06)e-9 AU/day^2 [1/r^2]
Epoch 2024 Jun 27.0 TT = JDT 2460488.5 Find_Orb
M 133.382316460 +/- 0.024 (J2000 equator)
n 362.014530462 +/- 0.000756 Peri. 34.745333 +/- 0.0041
a 42084.24153 +/- 0.0586 Node 66.828909 +/- 0.0009
e 0.77689648 +/- 5.39e-5 Incl. 35.948783 +/- 0.0006
P1431.960m/0.994d H 32.45 G 0.15 U 7.9
q 9389.142306 +/- 2.27 Q 74779.34076 +/- 2.24
From 21 observations 2024 May 28-July 27; mean residual 3".843
